Overview Statistics Trail Chart Weather Telemetry Raw packets
 

This is the latest recevied weather packets stored in our database for station/object K0QED. If no packets are shown the sender has not sent any weather packets the latest 10 day(s).

<< 84 85 86 87 88 89 90 >>
Time Temp. Humidity Pressure Rain* Wind** Luminosity Snow
1788005126 16.67° C 57% 1027 hPa 0 mm - 0 W/m² -
1788004822 16.67° C 55% 1027 hPa 0 mm - 0 W/m² -
1788004520 16.67° C 57% 1027.1 hPa 0 mm - 0 W/m² -
1788004215 16.67° C 57% 1027.1 hPa 0 mm - 0 W/m² -
1788003909 16.67° C 55% 1027.2 hPa 0 mm - 0 W/m² -
1788003603 16.11° C 56% 1027.1 hPa 0 mm - 0 W/m² -
1788003298 16.67° C 57% 1027.1 hPa 0 mm - 0 W/m² -
1788002997 16.11° C 56% 1027.1 hPa 0 mm - 0 W/m² -
1788002692 16.11° C 56% 1027.2 hPa 0 mm - 0 W/m² -
1788002388 16.11° C 56% 1027.4 hPa 0 mm - 0 W/m² -
1788002083 15.56° C 57% 1027.5 hPa 0 mm - 0 W/m² -
1788001783 15.56° C 59% 1027.5 hPa 0 mm - 0 W/m² -
1788001478 15.56° C 59% 1027.5 hPa 0 mm - 0 W/m² -
1788001172 15° C 60% 1027.5 hPa 0 mm - 0 W/m² -
1788000868 15.56° C 60% 1027.4 hPa 0 mm - 0 W/m² -
1788000563 15.56° C 59% 1027.4 hPa 0 mm - 0 W/m² -
1788000263 15.56° C 59% 1027.6 hPa 0 mm - 0 W/m² -
1787999958 16.11° C 57% 1027.6 hPa 0 mm - 0 W/m² -
1787999655 16.11° C 57% 1027.4 hPa 0 mm - 0 W/m² -
1787999352 16.11° C 57% 1027.4 hPa 0 mm - 0 W/m² -
1787999050 16.11° C 57% 1027.5 hPa 0 mm - 0 W/m² -
1787998745 16.67° C 56% 1027.4 hPa 0 mm - 0 W/m² -
1787998443 16.67° C 56% 1027.2 hPa 0 mm - 0 W/m² -
1787998138 16.67° C 56% 1027.4 hPa 0 mm - 0 W/m² -
1787997838 16.67° C 56% 1027.4 hPa 0 mm - 0 W/m² -

* Rain latest hour (hover to see other rain measurements)
** Current wind speed in m/s (hover to see current wind gust speed)